Regional Weather Roundup
Issued by NWS Sterling, VA

Home | Current Version | Previous Version | Graphics & Text | Print | Product List | Glossary On
Versions: 1 2 3 4 5 6 7 8 9 10 11 12 13 14 15 16 17 18 19 20 21 22 23 24 25 26 27 28 29 30 31 32 33 34 35 36 37 38 39 40 41 42 43 44 45 46 47 48 49 50
773
ASUS41 KLWX 170011
RWRLWX

REGIONAL WEATHER ROUNDUP
NATIONAL WEATHER SERVICE BALTIMORE MD/WASHINGTON DC
700 PM EST SAT DEC 16 2017

Note: "FAIR" indicates few or no clouds below 12,000 feet
with no significant weather and/or obstructions to visibility.
 TC=TEMPERATURE CELSIUS

 * =Non NWS site. Station does not report precipitation (e.g. rain,
    snow, etc.), thunder, or fog.

DCZ001-MDZ009-015-VAZ040>042-051-053>054-170100-
WASHINGTON METRO

CITY           SKY/WX    TMP DP  RH WIND       PRES   REMARKS
WASHINGTON NAT CLEAR     40  28  62 S7        30.15R
DULLES         PTCLDY    39  23  52 S5        30.14R
ANDREWS AFB    CLEAR     37  22  54 S6        30.13R
FT BELVOIR     CLEAR     35  24  64 CALM      30.14R
QUANTICO       CLEAR     42  30  62 SW8       30.16R
COLLEGE PARK*  CLEAR     32  24  72 CALM      30.14R
LEESBURG*      CLEAR     36  27  69 SW3       30.14R
MANASSAS*      CLEAR     32  23  69 CALM      30.14R
GAITHERSBURG*  CLEAR     33  22  63 CALM      30.14R

$$

MDZ006>007-011-014-170100-
BALTIMORE METRO

CITY           SKY/WX    TMP DP  RH WIND       PRES   REMARKS
BWI AIRPORT    CLEAR     38  23  55 SW3       30.14R
MD SCIENCE CTR   N/A     41  25  53 MISG      30.14R
MARTIN STATE   CLEAR     37  27  65 SW3       30.16R
ANNAPOLIS      CLEAR     40  24  53 SW3       30.15R
FORT MEADE*    CLEAR     32  25  74 CALM      30.16R

$$

MDZ012-015-019>023-170100-
MARYLAND EASTERN SHORE

CITY           SKY/WX    TMP DP  RH WIND       PRES   REMARKS
OCEAN CITY     CLEAR     37  25  61 W7        30.19R
SALISBURY      CLEAR     36  27  69 S6        30.18R
BAY BRIDGE AP* CLEAR     41  27  56 SW5       30.15R
CAMBRIDGE*     CLEAR     37  27  65 S3        30.17R
EASTON*        PTCLDY    37  25  60 S5        30.19R

$$

MDZ017>025-170100-
SOUTHERN MARYLAND

CITY           SKY/WX    TMP DP  RH WIND       PRES   REMARKS
PATUXENT RIVER CLEAR     41  24  51 SW10      30.17R
ST INIGOES     CLEAR     42  27  55 S7        30.17R
LEONARDTOWN*   CLEAR     39  25  56 SW5       30.18R

$$

MDZ003>005-170100-
NORTH CENTRAL MARYLAND

CITY           SKY/WX    TMP DP  RH WIND       PRES   REMARKS
FREDERICK*     CLEAR     34  19  55 CALM      30.16R
HAGERSTOWN APT CLEAR     43  24  47 CALM      30.11R
WESTMINSTER*   CLEAR     37  25  60 SW6       30.10R

$$

MDZ501>502-170100-
WESTERN MARYLAND

CITY           SKY/WX    TMP DP  RH WIND       PRES   REMARKS
OAKLAND*       CLEAR     32  23  69 W12G25    30.01R WCI  23
CUMBERLAND*    CLEAR     43  27  52 CALM      30.14R

$$

VAZ025>031-170100-
SHENANDOAH VALLEY

CITY           SKY/WX    TMP DP  RH WIND       PRES   REMARKS
WINCHESTER*    CLEAR     32  23  69 CALM      30.10R
FRONT ROYAL*   FAIR      41  25  52 MISG      30.09R
LURAY*         CLEAR     34  27  75 CALM      30.10R
NEW MARKET*    CLEAR     33  24  69 CALM      30.10R
STAUNTON*      CLEAR     37  23  55 S7        30.13R
WAYNESBORO*    CLEAR     41  23  48 SW7       30.11S

$$

WVZ021-048>050-054>055-170100-
EASTERN WEST VIRGINIA PANHANDLE

CITY           SKY/WX    TMP DP  RH WIND       PRES   REMARKS
MARTINSBURG    CLEAR     34  22  61 W3        30.11R
PETERSBURG*    CLEAR     34  24  65 CALM      30.11R

$$

VAZ036>039-050-170100-
CENTRAL FOOTHILLS

CITY           SKY/WX    TMP DP  RH WIND       PRES   REMARKS
CHARLOTTESVILL CLEAR     43  25  49 S13       30.12R
CULPEPER*      FAIR      30  21  68 CALM      30.14S
ORANGE*        CLEAR     41  25  52 S6        30.13S
GORDONSVILLE*  CLEAR     36  25  64 CALM      30.14R
WARRENTON*     CLEAR     40  20  45 SW3       30.12S

$$

VAZ055>057-170100-
NORTH AND CENTRAL PIEDMONT

CITY           SKY/WX    TMP DP  RH WIND       PRES   REMARKS
FREDERICKSBRG* CLEAR     41  26  55 S8        30.14S
STAFFORD*      CLEAR     40  24  51 S3        30.19R

$$

NCZ024-NYZ072-PAZ021-071-VAZ022-071-170100-
OTHER REGIONAL OBSERVATIONS

CITY           SKY/WX    TMP DP  RH WIND       PRES   REMARKS
NEW YORK CITY  CLOUDY    38  25  59 NW8       30.10R
PHILADELPHIA   MOCLDY    39  26  59 SW10      30.13R
PITTSBURGH     PTCLDY    38  26  62 SW3       30.09R
ROANOKE        CLEAR     45  23  42 W9        30.18R
RICHMOND       CLEAR     38  23  55 S5        30.19R
RALEIGH        CLOUDY    39  24  55 SW6       30.23R

$$

ANZ530>537-170100-
MARINE OBSERVATIONS

STATION/POSITION TIME  TEMP    WIND        PRES
                       AIR SEA DIR/SP/G
                 (UTC) (F)     (DEG/KT/KT) (MB)
THOMAS PT LIGHT  0000   43 44  200/  9/ 10   N/A
BALT KEY BRIDGE  2342   42     200/  5/  6 1020.7R
COVE POINT       2342   43     230/ 11/ 15 1022.0R
LEWISETTA        2342   42 39  230/  8/ 11 1021.6R
SOLOMONS ISLAND  2342   43 44  220/ 10/ 11 1021.2R
PINEY POINT      2342          220/  5/  7   N/A

$$





USA.gov is the U.S. government's official web portal to all federal, state and local government web resources and services.